Temp
79 80 80 79 80 82 81 81 83 85 84 87 86 86 88 87 88 89 91 87 89 86 86 85 84 85 88 86 83 84 82 83 83 84 83 83 83 86 84 86 86 85
79 80 81 81 82 83 83 84 85 86 87 86 90 91 89 90 91 89 89 89 89 87 86 88 86 87 85 85 83 83 83 82 82 84 83 82 82 83 84 85 85 86
79 82 82 82 82 83 85 86 86 87 90 91 90 88 93 91 90 91 88 90 88 89 86 85 85 85 87 83 82 83 84 81 82 85 81 81 81 82 83 84 84 85
82 83 84 84 85 86 86 85 86 85 89 86 91 93 91 93 91 90 87 87 86 86 88 87 85 87 87 85 82 82 83 82 83 80 80 81 82 82 81 83 84 83
83 83 85 86 86 86 86 87 90 91 91 88 92 89 88 87 85 88 86 88 86 87 87 86 86 85 83 83 83 82 83 84 83 81 80 80 81 82 82 82 80 80
82 84 85 86 86 85 87 91 91 90 90 92 90 90 89 88 86 83 84 85 88 88 87 86 86 84 83 82 83 82 82 82 83 80 81 80 81 82 82 81 81 82
86 85 86 87 88 88 89 89 90 91 91 88 86 87 87 87 87 84 84 85 87 84 85 83 81 82 83 82 80 80 80 80 81 80 79 81 80 81 84 83 81 81
87 86 86 86 87 88 89 92 91 88 90 89 88 87 86 87 86 89 87 85 85 84 83 83 82 81 83 82 81 79 80 84 83 79 78 79 79 79 80 83 81 79
84 85 85 86 86 88 92 91 89 89 89 88 87 86 87 87 88 87 84 84 83 81 83 84 82 83 82 81 80 79 79 81 81 80 79 80 80 79 81 80 79 78
84 85 85 85 86 85 85 87 88 87 88 87 86 86 87 87 86 85 83 80 80 81 83 81 81 81 81 80 80 79 78 78 78 79 80 80 80 80 80 78 77 77
83 84 84 85 86 87 87 86 87 87 86 87 87 85 84 84 83 82 82 81 82 82 82 82 82 81 80 80 79 79 78 78 77 77 79 79 80 79 80 78 77 78
83 84 85 86 87 88 88 86 86 84 84 83 84 83 83 81 80 79 79 80 81 81 82 81 81 81 79 77 78 77 77 77 76 76 78 78 79 78 78 77 77 78
83 84 85 86 86 85 85 84 82 83 82 81 82 81 80 80 80 78 79 81 81 82 82 81 81 81 77 77 76 77 76 75 76 75 76 77 77 77 78 77 77 77
85 85 84 84 84 84 83 83 82 81 80 80 80 78 78 80 82 81 82 81 82 81 81 81 80 79 77 77 77 76 76 75 75 75 75 75 76 76 78 78 77 77
83 84 84 83 83 83 83 82 81 79 78 77 75 76 77 77 79 80 79 80 82 81 80 81 81 80 79 78 77 76 76 76 76 75 75 74 75 76 77 76 75 77
83 83 82 82 81 82 81 81 79 77 74 72 73 74 74 75 77 79 79 80 80 80 81 81 82 79 80 80 79 76 75 75 75 74 74 73 73 74 75 76 76 77
83 83 83 82 82 81 80 77 76 78 75 74 74 74 73 74 76 77 78 81 80 80 80 80 81 79 77 73 74 76 75 74 73 73 73 73 74 73 73 75 77 77
82 82 82 82 82 80 77 76 76 75 74 73 74 73 74 77 77 79 79 82 82 79 79 81 78 74 71 73 73 73 75 73 73 73 74 73 74 75 76 76 75 76
82 82 82 81 81 77 77 77 76 75 74 74 72 75 77 76 76 79 80 82 82 80 80 81 76 71 70 71 71 70 72 74 73 73 73 75 75 75 75 74 74 75
82 81 81 80 80 75 76 76 75 75 75 74 75 77 75 75 78 79 81 79 82 81 79 78 73 73 70 70 70 69 70 72 74 74 75 76 75 74 75 74 73 73
81 81 78 78 77 78 74 74 75 74 75 72 74 75 75 76 79 80 80 81 80 79 79 79 74 69 68 69 68 68 70 74 75 75 74 74 74 75 73 73 73 74
80 80 77 77 78 78 77 76 75 73 73 74 76 76 78 80 81 81 80 79 80 80 79 77 73 67 67 66 66 67 72 75 73 73 73 73 72 72 72 72 73 73
80 77 76 77 76 77 78 77 73 76 74 74 76 78 79 80 78 80 80 79 79 79 77 76 73 66 64 65 65 66 72 72 71 71 71 71 71 71 71 72 72 72
79 77 78 77 76 75 74 73 73 73 76 79 78 78 78 78 78 79 78 78 78 77 79 76 74 68 64 64 64 66 72 71 69 69 68 69 70 70 71 71 72 74
79 77 77 77 74 75 74 73 76 77 78 79 78 79 79 79 79 78 77 78 77 77 80 78 76 69 62 63 63 65 70 70 69 68 68 68 68 68 69 70 71 73
76 75 77 76 74 74 75 77 79 80 80 78 79 79 78 77 78 77 75 77 76 77 78 78 76 74 68 61 62 64 66 71 69 67 67 67 67 67 67 69 70 70
MSLP
1013.32 1013.40 1013.60 1013.76 1013.68 1013.52 1013.64 1013.76 1013.52 1013.36 1013.16 1012.96 1013.12 1013.00 1012.92 1012.80 1012.48 1012.40 1012.48 1012.68 1012.60 1013.04 1013.20 1013.28 1013.40 1013.40 1013.36 1013.28 1013.48 1013.56 1013.72 1013.68 1013.72 1013.56 1013.60 1013.72 1013.84 1013.80 1013.96 1013.76 1013.60 1013.56
1013.24 1013.28 1013.20 1013.20 1013.20 1013.16 1013.20 1013.08 1013.08 1012.84 1012.64 1012.48 1012.08 1012.16 1012.24 1012.20 1012.44 1012.60 1012.60 1012.72 1012.68 1012.96 1013.00 1013.08 1013.16 1013.28 1013.28 1013.36 1013.52 1013.72 1013.72 1013.84 1013.96 1013.52 1013.72 1014.00 1014.08 1014.00 1013.96 1013.80 1013.68 1013.40
1013.24 1013.08 1013.08 1013.20 1013.28 1013.24 1013.08 1012.84 1012.72 1012.56 1012.40 1012.24 1012.16 1012.16 1012.20 1012.16 1012.52 1012.48 1012.64 1012.76 1012.96 1013.04 1013.08 1013.16 1013.16 1013.08 1013.16 1013.40 1013.56 1013.72 1013.80 1013.92 1014.00 1013.68 1013.92 1014.12 1014.08 1014.16 1014.08 1014.04 1013.84 1013.56
1012.92 1012.92 1013.00 1013.00 1012.96 1013.00 1012.92 1012.92 1012.84 1012.60 1012.28 1012.40 1012.36 1012.24 1012.40 1012.28 1012.36 1012.72 1012.88 1012.96 1013.16 1013.12 1013.00 1013.08 1013.24 1013.16 1013.16 1013.36 1013.60 1013.76 1013.76 1013.80 1013.64 1013.84 1014.04 1014.08 1014.08 1014.00 1013.96 1013.84 1013.88 1013.88
1012.88 1012.96 1012.84 1012.88 1012.88 1012.84 1012.88 1012.80 1012.68 1012.60 1012.48 1012.36 1012.16 1012.36 1012.56 1012.72 1013.00 1013.16 1013.28 1013.24 1013.20 1013.24 1013.04 1013.28 1013.32 1013.52 1013.52 1013.64 1013.68 1013.88 1013.76 1013.80 1013.68 1013.80 1014.00 1014.12 1013.96 1013.88 1013.76 1013.76 1013.92 1014.00
1013.12 1012.84 1012.80 1012.96 1013.00 1012.92 1012.76 1012.52 1012.56 1012.48 1012.60 1012.40 1012.60 1012.68 1012.84 1013.00 1013.32 1013.64 1013.68 1013.64 1013.40 1013.32 1013.28 1013.48 1013.64 1013.76 1013.72 1013.76 1013.68 1013.88 1014.00 1014.12 1013.92 1013.84 1013.92 1014.04 1014.00 1013.76 1013.68 1013.68 1013.64 1013.68
1013.04 1013.00 1013.04 1012.92 1012.88 1012.60 1012.52 1012.64 1012.48 1012.40 1012.60 1012.88 1012.80 1013.20 1013.24 1013.36 1013.48 1013.72 1013.80 1013.80 1013.68 1013.84 1013.96 1013.96 1014.08 1014.16 1013.92 1013.88 1014.04 1014.16 1014.16 1014.12 1013.88 1013.96 1014.16 1014.08 1013.96 1013.88 1013.52 1013.44 1013.40 1013.56
1012.88 1012.84 1012.88 1012.92 1012.88 1012.64 1012.76 1012.48 1012.52 1012.92 1012.80 1012.92 1013.40 1013.36 1013.48 1013.72 1013.72 1013.56 1013.76 1014.00 1014.12 1014.36 1014.28 1014.16 1014.28 1014.24 1014.08 1014.20 1014.32 1014.40 1014.32 1014.04 1014.08 1014.20 1014.28 1014.24 1014.00 1013.96 1013.72 1013.48 1013.56 1013.80
1012.96 1013.12 1013.12 1013.04 1013.00 1012.76 1012.48 1012.56 1012.88 1013.00 1013.08 1013.36 1013.52 1013.68 1013.60 1013.64 1013.76 1014.00 1014.24 1014.28 1014.44 1014.52 1014.36 1014.32 1014.40 1014.28 1014.28 1014.28 1014.48 1014.56 1014.64 1014.52 1014.40 1014.48 1014.48 1014.36 1014.24 1014.08 1013.92 1013.76 1013.92 1013.92
1013.32 1013.28 1013.28 1013.28 1013.20 1013.08 1013.04 1012.96 1013.20 1013.40 1013.32 1013.64 1013.76 1013.80 1013.84 1013.92 1014.08 1014.20 1014.44 1014.68 1014.76 1014.72 1014.56 1014.48 1014.44 1014.48 1014.44 1014.48 1014.60 1014.72 1014.84 1014.80 1014.68 1014.60 1014.48 1014.40 1014.28 1014.16 1014.04 1014.04 1014.08 1014.16
1013.56 1013.52 1013.56 1013.40 1013.36 1013.24 1013.36 1013.44 1013.48 1013.60 1013.64 1013.92 1014.08 1014.36 1014.28 1014.40 1014.44 1014.52 1014.64 1014.76 1014.80 1014.76 1014.68 1014.56 1014.60 1014.60 1014.64 1014.68 1014.80 1014.84 1014.96 1015.00 1014.92 1014.80 1014.68 1014.52 1014.32 1014.24 1014.16 1014.16 1014.20 1014.20
1013.64 1013.60 1013.52 1013.44 1013.32 1013.32 1013.48 1013.64 1013.80 1014.00 1014.28 1014.40 1014.52 1014.72 1014.60 1014.80 1014.84 1014.96 1015.00 1014.96 1014.76 1014.68 1014.52 1014.60 1014.60 1014.60 1014.76 1014.96 1015.00 1015.00 1015.00 1015.08 1015.08 1015.00 1014.84 1014.64 1014.48 1014.32 1014.20 1014.12 1014.16 1014.12
1013.60 1013.52 1013.44 1013.48 1013.56 1013.72 1013.76 1014.04 1014.40 1014.56 1014.76 1015.04 1014.76 1014.88 1015.04 1015.04 1014.96 1015.04 1014.92 1014.80 1014.72 1014.56 1014.64 1014.64 1014.68 1014.64 1014.92 1015.00 1015.04 1015.04 1015.08 1015.16 1015.16 1015.08 1014.96 1014.80 1014.60 1014.44 1014.20 1014.08 1014.04 1014.04
1013.44 1013.40 1013.52 1013.68 1013.84 1013.88 1014.16 1014.40 1014.72 1015.00 1015.16 1015.08 1015.04 1015.24 1015.36 1015.20 1015.04 1015.04 1014.88 1014.80 1014.64 1014.64 1014.64 1014.60 1014.60 1014.80 1014.96 1015.00 1015.00 1015.12 1015.08 1015.16 1015.12 1015.16 1015.12 1014.96 1014.76 1014.52 1014.24 1014.12 1014.04 1013.96
1013.48 1013.56 1013.56 1013.84 1014.00 1014.20 1014.44 1014.68 1014.92 1015.32 1015.48 1015.48 1015.32 1015.52 1015.48 1015.36 1015.16 1015.08 1015.16 1015.04 1014.80 1014.76 1014.84 1014.68 1014.60 1014.76 1014.92 1015.00 1015.08 1015.12 1015.08 1015.16 1015.12 1015.16 1015.12 1015.08 1014.88 1014.64 1014.32 1014.12 1014.00 1013.88
1013.56 1013.60 1013.88 1013.96 1014.32 1014.48 1014.68 1014.84 1015.16 1015.44 1015.96 1016.00 1015.68 1015.80 1015.72 1015.56 1015.44 1015.24 1015.20 1015.08 1015.04 1014.92 1014.84 1014.76 1014.52 1014.76 1014.88 1014.96 1015.00 1015.12 1015.20 1015.20 1015.20 1015.16 1015.08 1015.00 1014.88 1014.72 1014.44 1014.08 1013.88 1013.76
1013.68 1013.84 1013.88 1014.24 1014.36 1014.56 1014.76 1015.12 1015.44 1015.44 1015.76 1015.84 1015.88 1015.80 1015.68 1015.68 1015.56 1015.44 1015.20 1014.92 1014.92 1014.88 1014.84 1014.72 1014.68 1014.88 1015.08 1015.24 1015.24 1015.16 1015.20 1015.28 1015.32 1015.20 1014.96 1014.88 1014.72 1014.60 1014.44 1014.12 1013.84 1013.68
1013.84 1013.88 1014.12 1014.28 1014.48 1014.80 1015.16 1015.28 1015.36 1015.56 1015.76 1015.76 1015.92 1016.12 1015.92 1015.64 1015.44 1015.20 1014.92 1014.64 1014.60 1014.76 1014.88 1014.76 1015.00 1015.24 1015.32 1015.36 1015.40 1015.36 1015.28 1015.32 1015.24 1015.16 1015.00 1014.84 1014.60 1014.40 1014.20 1014.08 1014.00 1013.80
1013.84 1014.08 1014.24 1014.52 1014.64 1015.08 1015.20 1015.28 1015.44 1015.60 1015.68 1015.80 1016.24 1015.84 1015.76 1015.68 1015.40 1015.12 1014.92 1014.60 1014.68 1014.84 1014.92 1014.72 1015.24 1015.36 1015.40 1015.40 1015.40 1015.40 1015.40 1015.28 1015.16 1015.00 1014.92 1014.72 1014.44 1014.28 1014.12 1014.00 1013.88 1013.84
1013.96 1014.20 1014.36 1014.64 1014.88 1015.52 1015.36 1015.40 1015.56 1015.68 1015.76 1016.04 1016.00 1015.60 1015.64 1015.60 1015.20 1014.92 1014.64 1014.72 1014.64 1014.76 1014.80 1014.92 1015.36 1015.40 1015.40 1015.44 1015.48 1015.48 1015.40 1015.24 1015.04 1014.84 1014.64 1014.48 1014.32 1014.16 1014.04 1014.00 1013.96 1013.92
1014.12 1014.32 1014.80 1014.92 1015.12 1015.16 1015.76 1015.76 1015.48 1015.72 1015.72 1015.92 1015.76 1015.68 1015.60 1015.48 1015.00 1014.88 1014.68 1014.56 1014.72 1014.76 1014.88 1015.00 1015.44 1015.44 1015.52 1015.56 1015.64 1015.56 1015.40 1015.16 1015.00 1014.84 1014.72 1014.56 1014.32 1014.20 1014.16 1014.04 1013.92 1013.80
1014.32 1014.48 1014.92 1015.04 1015.00 1014.96 1015.08 1015.12 1015.24 1015.68 1015.88 1015.64 1015.44 1015.32 1015.12 1014.76 1014.60 1014.48 1014.64 1014.80 1014.80 1014.80 1014.92 1015.24 1015.60 1015.60 1015.68 1015.72 1015.72 1015.56 1015.32 1015.28 1015.16 1015.08 1014.96 1014.76 1014.60 1014.40 1014.20 1014.00 1013.84 1013.72
1014.24 1014.80 1015.04 1014.96 1015.08 1015.04 1014.96 1015.08 1015.48 1015.40 1015.44 1015.28 1015.32 1015.12 1015.00 1014.88 1014.88 1014.76 1014.60 1014.76 1014.88 1014.96 1015.20 1015.28 1015.60 1015.80 1015.76 1015.76 1015.76 1015.56 1015.40 1015.48 1015.44 1015.32 1015.20 1015.00 1014.80 1014.48 1014.28 1014.08 1013.88 1013.72
1014.24 1014.60 1014.76 1014.84 1014.96 1015.20 1015.40 1015.60 1015.40 1015.28 1015.20 1014.92 1015.08 1015.04 1015.08 1015.00 1014.92 1014.80 1014.76 1014.80 1015.00 1015.20 1015.20 1015.40 1015.60 1015.76 1015.76 1015.80 1015.72 1015.52 1015.48 1015.60 1015.60 1015.52 1015.36 1015.12 1014.84 1014.56 1014.36 1014.16 1013.92 1013.64
1014.16 1014.48 1014.68 1014.72 1015.28 1015.32 1015.32 1015.44 1015.32 1015.16 1014.88 1014.72 1014.84 1014.84 1014.88 1014.88 1014.92 1014.92 1015.08 1015.04 1015.08 1015.20 1015.16 1015.28 1015.44 1015.72 1015.76 1015.84 1015.64 1015.56 1015.52 1015.52 1015.56 1015.56 1015.48 1015.24 1015.08 1014.88 1014.52 1014.28 1013.96 1013.60
1014.36 1014.48 1014.48 1014.76 1015.12 1015.24 1015.12 1015.04 1014.80 1014.76 1014.80 1014.92 1014.84 1014.84 1015.08 1015.08 1015.12 1015.24 1015.44 1015.40 1015.28 1015.32 1015.32 1015.28 1015.36 1015.48 1015.64 1015.72 1015.60 1015.60 1015.52 1015.48 1015.48 1015.60 1015.60 1015.40 1015.24 1015.04 1014.76 1014.32 1014.00 1013.76
Wind_Speed
6 5 5 4 6 5 5 5 5 6 5 5 8 6 7 4 2 1 4 6 4 7 3 3 3 1 4 3 5 4 4 3 4 3 1 1 3 4 5 7 6 4
4 4 4 3 3 3 3 4 4 5 4 6 2 3 3 2 5 5 6 5 4 5 2 2 2 1 1 3 4 4 3 4 5 3 3 8 7 7 7 8 8 5
5 5 5 5 4 5 5 4 3 4 1 5 5 6 0 6 3 3 3 2 4 3 2 3 3 3 4 6 3 4 5 4 4 4 6 5 4 4 5 7 8 8
6 5 4 4 3 3 2 2 2 4 1 4 2 4 6 7 5 5 3 3 3 2 1 1 0 2 4 6 5 3 4 3 3 5 2 2 3 4 3 3 6 8
5 4 4 3 2 2 4 4 2 4 1 4 4 4 5 4 8 8 7 3 2 2 1 5 6 6 5 4 3 3 4 4 4 3 2 2 2 4 3 2 2 4
5 3 3 3 2 3 5 4 4 4 4 2 11 7 5 6 7 6 4 4 4 6 6 9 7 8 6 3 2 3 5 6 6 4 3 2 3 3 3 4 4 5
7 5 5 4 3 5 2 5 1 4 7 9 8 8 5 4 4 5 3 4 5 9 9 5 5 5 5 4 5 5 5 4 4 4 6 5 4 6 5 5 4 3
7 4 2 2 3 1 5 5 7 6 4 7 7 5 3 5 6 5 6 7 7 6 5 3 4 3 4 5 4 4 5 5 8 7 6 5 4 4 6 6 6 6
4 4 3 3 2 3 5 7 6 7 6 6 5 4 2 3 4 7 6 6 6 5 4 5 4 4 4 3 5 6 7 8 7 7 6 7 7 6 6 6 7 5
4 3 2 2 2 6 10 9 7 4 3 3 3 6 6 6 6 6 6 5 3 4 5 3 4 4 4 5 5 5 7 7 7 6 7 7 7 7 7 5 5 5
5 3 3 1 4 3 7 4 4 3 4 6 6 6 3 5 5 5 3 4 4 4 3 4 6 4 4 5 7 7 7 8 8 7 8 8 8 7 8 6 6 6
5 4 3 3 2 4 5 5 5 6 7 6 6 3 5 5 5 6 5 3 5 3 4 4 3 3 5 6 5 5 5 6 6 6 7 7 8 6 5 5 5 5
5 4 3 4 4 4 4 5 8 6 7 5 5 7 5 4 4 2 1 3 3 3 4 3 2 2 6 4 3 3 3 4 5 6 7 6 6 7 6 5 4 4
4 4 4 5 4 4 5 6 6 7 6 7 6 5 4 5 5 5 5 4 3 3 3 3 3 4 4 3 2 2 3 3 3 5 6 6 7 8 7 5 5 5
4 4 4 4 4 4 4 4 6 7 7 6 4 5 5 6 4 4 3 4 5 4 3 3 5 4 3 2 2 2 2 3 4 4 6 6 6 8 7 5 5 4
3 3 4 4 3 4 4 5 5 6 7 3 4 3 3 4 4 3 3 2 2 2 2 4 2 5 5 7 6 3 3 4 4 4 5 5 5 6 6 5 4 4
3 3 3 3 3 4 3 6 3 3 5 1 2 2 2 3 4 3 5 0 3 1 2 3 3 4 9 5 5 7 4 4 4 5 5 5 6 5 6 5 4 4
3 3 3 3 3 4 4 3 3 2 2 1 1 3 2 3 4 4 5 1 2 4 3 4 6 7 6 5 5 5 6 3 4 5 5 5 5 6 5 5 6 7
4 3 3 2 4 4 2 2 3 2 2 3 3 2 1 4 6 4 5 3 3 2 2 3 7 6 6 5 4 2 4 6 4 5 6 6 6 5 6 5 5 5
3 3 2 2 3 4 1 1 1 1 2 1 2 1 0 3 6 6 1 1 0 1 2 4 6 7 6 5 3 3 5 8 5 5 5 6 6 6 5 5 6 6
3 3 2 1 1 1 3 4 5 4 0 4 1 2 3 5 4 1 3 2 5 5 4 4 4 7 5 4 4 4 7 8 6 6 6 6 6 7 7 7 7 7
3 1 3 2 1 1 2 3 3 2 3 2 1 2 4 3 3 4 5 4 2 2 3 4 5 5 5 4 3 6 8 7 6 6 7 7 7 6 6 6 6 7
3 3 2 1 3 4 2 1 4 2 3 2 3 1 2 1 4 2 2 3 4 3 5 4 4 3 5 4 2 6 6 5 6 6 6 7 7 6 6 7 7 7
2 2 1 1 2 2 3 6 3 2 2 2 2 2 2 1 2 2 4 4 4 4 4 4 3 4 4 2 2 6 6 4 5 6 6 6 6 6 7 7 9 17
3 2 1 5 1 2 5 2 2 2 1 0 1 2 2 2 5 3 5 3 4 3 4 3 3 4 4 4 4 4 3 2 4 5 6 6 7 8 8 7 8 10
3 1 2 5 4 3 3 2 3 2 2 2 1 4 5 4 3 5 4 3 2 2 3 2 2 2 6 5 5 3 2 3 4 5 6 7 7 8 8 7 7 7
Wind_Direction
158 183 173 175 188 185 168 194 217 214 231 227 212 218 152 180 140 348 131 170 114 106 160 135 179 28 351 2 43 20 12 353 358 336 331 187 252 329 340 330 331 337
164 191 178 174 122 153 167 199 220 246 209 226 40 138 69 92 85 30 38 20 34 84 60 42 73 103 272 37 47 17 347 29 350 309 10 20 6 349 329 335 325 325
184 171 142 139 145 173 183 198 241 273 11 24 39 27 13 125 81 78 56 81 29 48 64 60 351 22 17 71 47 360 4 354 312 358 36 11 350 332 339 338 322 342
150 139 141 149 168 124 101 176 185 286 91 204 155 87 39 30 81 98 124 63 49 352 33 36 135 347 19 44 37 359 341 323 331 67 35 3 333 312 303 319 340 332
130 149 154 146 118 156 201 220 173 176 97 18 97 87 52 56 56 35 28 25 10 290 344 56 18 46 29 29 10 338 338 339 1 15 41 338 313 313 320 335 296 275
177 164 124 123 166 220 231 136 101 82 159 116 72 60 55 44 70 55 14 24 356 1 12 31 18 25 15 331 350 12 14 351 331 302 301 8 320 329 311 283 287 293
139 135 146 172 200 244 93 83 184 63 65 65 59 56 39 30 51 79 47 9 3 20 16 6 34 14 349 3 11 22 354 318 292 7 6 351 333 300 302 308 307 343
133 134 115 111 205 151 134 202 89 74 66 56 67 78 52 55 3 36 40 29 30 23 2 13 16 347 7 8 357 355 340 341 356 357 348 330 307 323 333 335 1 7
86 90 138 195 233 221 160 117 70 63 43 54 60 93 56 33 49 50 37 30 23 12 333 24 358 360 7 360 21 5 360 1 351 356 335 335 340 343 341 358 353 346
107 132 147 212 344 47 40 51 73 69 85 108 56 23 27 62 44 42 42 56 24 9 360 2 15 16 357 31 13 17 8 1 358 348 345 335 334 339 346 348 352 341
126 129 151 123 89 64 72 84 94 85 54 41 45 43 24 49 50 43 54 31 27 12 349 6 20 358 19 25 36 24 13 0 353 353 343 338 337 352 343 348 343 336
132 134 137 126 110 104 90 61 54 47 49 40 54 25 44 53 36 36 2 19 330 19 338 29 11 352 51 51 42 28 17 7 352 338 337 336 333 330 331 328 334 330
138 152 132 86 63 74 87 64 55 49 57 47 33 33 35 22 76 99 256 348 341 349 23 4 357 355 81 68 50 35 26 10 344 335 335 336 325 328 325 320 327 349
135 111 93 83 79 70 53 70 85 70 49 32 35 33 20 10 18 22 8 338 338 38 19 358 305 90 96 89 69 54 25 356 1 332 329 327 329 315 306 321 331 316
107 120 103 89 86 88 91 78 69 65 45 37 9 15 12 358 15 351 5 334 15 33 2 331 300 109 104 73 54 26 27 345 354 334 322 322 315 311 316 309 297 302
126 118 113 123 113 89 77 73 61 74 68 16 331 4 10 335 331 341 313 321 5 32 9 303 315 98 85 68 63 26 13 352 337 324 317 299 302 303 298 295 289 294
122 114 131 135 130 97 72 76 78 75 90 113 110 338 349 297 284 285 258 152 209 191 328 317 54 95 87 82 65 30 18 351 327 313 308 314 302 289 286 300 317 324
134 138 146 130 114 98 86 92 101 89 109 168 340 182 257 271 285 276 276 262 18 31 10 326 82 93 97 85 60 41 7 341 318 313 315 303 297 298 311 316 312 303
145 165 127 117 114 64 64 90 80 109 232 182 143 277 265 266 260 251 258 14 18 345 350 350 101 112 113 96 67 26 353 338 315 304 293 288 293 307 306 304 308 325
152 156 120 123 93 107 303 76 296 331 239 110 232 162 225 279 262 247 125 234 283 359 327 69 112 120 104 98 60 342 340 321 302 304 305 311 315 308 326 333 337 327
141 122 77 34 54 185 165 226 210 223 13 34 318 180 213 233 249 116 254 15 33 25 350 66 112 113 110 107 54 345 336 330 331 332 325 321 329 337 334 329 317 313
139 155 97 232 213 229 299 259 70 29 58 240 141 223 246 267 281 352 29 48 29 1 4 63 119 111 103 92 39 359 4 353 336 334 330 327 327 324 321 316 320 321
155 130 187 55 331 300 254 21 43 346 109 192 232 291 314 327 14 355 336 41 26 14 40 1 123 140 116 95 48 28 17 357 346 331 328 327 321 324 327 325 319 316
110 90 113 124 112 247 3 46 23 49 236 184 249 228 99 359 244 282 47 24 27 26 30 328 111 146 130 154 93 49 26 12 343 332 322 317 325 328 326 321 315 310
95 70 244 141 213 33 78 162 199 173 168 357 60 274 242 69 6 19 34 19 35 22 343 328 73 141 176 194 94 69 37 13 348 329 331 336 339 328 320 315 310 316
87 45 165 63 71 119 187 180 173 144 97 79 315 31 29 16 24 19 11 10 7 8 329 8 339 149 175 188 145 122 37 13 346 343 337 336 330 323 316 313 322 323